NOAA 16 DEB, 41277

Orbit data source: Space-Track

NOAA 16 DEB, 41277 is space debris in SSO originally from a launch on Thu, 21 Sep 2000 UTC launched from the Air Force Western Test Range (AFWTR). Debris objects in space refer to the collection of defunct objects orbiting the Earth. Examples of debris include non-operational satellites, rocket bodies, and fragments generated from explosions, collisions, or faulty payload assembly.

Loading next visibility...
Identifier
41277, 2000-055GD
Orbit
SSO
Country
Flag of USUS
Related business
Manufacturer
Unknown
Mission
Spacecraft
Bus & Motor
Unknown
Mass
Unknown
Launch date (UTC)
2000-09-21 (26 years ago)
Launch vehicle
Unknown
Launch site
Air Force Western Test Range (AFWTR)
Object type
Payload
Rocket body
Debris
Shape & HBR
Unknown shape, 0.1 m
Radar Cross Section
Medium (>0.1 m² and <1 m²)

Expand to show TLE details & history
Last TLE update: 3 days ago

TLE from 3 days ago
0 NOAA 16 DEB
1 41277U 00055GD  26170.53093731  .00004830  00000-0  11690-2 0  9992
2 41277  98.9745  20.6705 0032610 114.0532 246.4080 14.53214522546821
Epoch: 2026-06-19T12:44Z
TLE epoch observation values (Epoch: 2026-06-19T12:44:32.983Z)
Latitude
-0.00002°
Longitude
-78.22551°
Altitude
727.443 km
Speed
7.487 km/s
True Right ascension
01h 22m 40s
True Declination
0° 00' 00"
Sunlit
Object was in daylight at epoch
Visualization orbit readout
Latitude
Unknown
Longitude
Unknown
Altitude
Unknown
Speed
Unknown
Apparent Right ascension
Unknown
Apparent Declination
Unknown
Sunlit
N/A
Visualization observer readout
Local Sidereal Time
21:35:54
Azimuth
Unknown
Elevation
Unknown
Doppler factor
Unknown
Orbital elements
Apogee altitude
735.418 km
Perigee altitude
689.174 km
Semi-major axis
7,090.433 km
Eccentricity
0.00326
Inclination
98.9745°
RAAN
20.6705°
Arg. of periapsis
114.0532°
True anomaly
246.06611°
Mean anomaly
246.408°
Eccentric anomaly
246.237°
Mean motion
3.63525 °/min
Orbital period
99.03 mins
BSTAR
0.001169
Loading maneuver chart data...
Computing Atmospheric mass density...
Loading historical data...
Loading historical data...
Loading historical data...
Loading historical data...
Loading historical data...
Loading historical data...
Loading historical data...

Documentation

Showing up to 5 results
|